Corpus Christi, TX

1:06 AM CDT on April 23, 2017 (GMT -0500)
Corpus Christi International

Weather History for KCRP - September, 2013

Change the Weather History Date:

Sunday, September 15, 2013

  Actual Average Record
Temperature  
Mean Temperature 87 °F 81 °F  
Max Temperature 92 °F 90 °F 98 °F (1953)
Min Temperature 81 °F 72 °F 64 °F (1961)
Degree Days  
Heating Degree Days 0 0  
Month to date heating degree days 0 0  
Since 1 July heating degree days 0 0  
Cooling Degree Days 22 16  
Month to date cooling degree days 305 263  
Year to date cooling degree days 3318 2824  
Growing Degree Days 36 (Base 50)    
Moisture  
Dew Point 75 °F    
Average Humidity 69    
Maximum Humidity 79    
Minimum Humidity 59    
Precipitation  
Precipitation 0.19 in 0.17 in 2.53 in (2002)
Month to date precipitation 3.16 2.67  
Year to date precipitation 14.17 22.01  
Snow  
Snow 0.00 in - - ()
Month to date snowfall 0.0  
Since 1 July snowfall 0.0  
Since 1 September snowfall 0.0  
Snow Depth 0.00 in    
Sea Level Pressure  
Sea Level Pressure 29.88 in    
Wind  
Wind Speed 16 mph (East)    
Max Wind Speed 28 mph    
Max Gust Speed 35 mph    
Visibility 10 miles    
Events Rain    
T = Trace of Precipitation, MM = Missing Value Source: NWS Daily Summary

Daily Weather History Graph

Daily Weather History Graph

Search for Another Location

Airport or City:

Trip Planner

Search our weather history database for the weather conditions in past years. The results will help you decide how hot, cold, wet, or windy it might be!

Date:

Astronomy

Sep. 15, 2013 Rise Set
Actual Time 7:15 AM CDT 7:34 PM CDT
Civil Twilight 6:51 AM CDT 7:57 PM CDT
Nautical Twilight 6:24 AM CDT 8:25 PM CDT
Astronomical Twilight 5:56 AM CDT 8:52 PM CDT
Moon 4:48 PM CDT (9/15) 3:12 AM CDT (9/15)
Length of Visible Light 13h 05m
Length of Day
12h 18m
Waxing Gibbous, 82% of the Moon is Illuminated
Sep 15
Waxing Gibbous
Sep 19
Full
Sep 26
Last Quarter
Oct 4
New
Oct 11
First Quarter

Hourly Weather History & Observations

Time (CDT) Temp. Heat Index Dew Point Humidity Pressure Visibility Wind Dir Wind Speed Gust Speed Precip Events Conditions
12:51 AM 84.0 °F 91.9 °F 75.0 °F 74% 29.86 in 10.0 mi East 13.8 mph - N/A   Partly Cloudy
1:51 AM 84.0 °F 91.9 °F 75.0 °F 74% 29.85 in 10.0 mi East 11.5 mph - N/A   Mostly Cloudy
2:30 AM 84.2 °F 92.3 °F 75.2 °F 74% 29.86 in 10.0 mi East 9.2 mph - N/A   Scattered Clouds
2:51 AM 84.0 °F 91.9 °F 75.0 °F 74% 29.85 in 10.0 mi ENE 8.1 mph - N/A   Mostly Cloudy
3:51 AM 82.9 °F 90.8 °F 75.9 °F 79% 29.84 in 10.0 mi ENE 13.8 mph - 0.07 in   Mostly Cloudy
4:40 AM 84.2 °F 92.3 °F 75.2 °F 74% 29.85 in 2.0 mi ENE 19.6 mph 28.8 mph 0.00 in Rain Heavy Rain
4:51 AM 82.0 °F 89.4 °F 75.9 °F 82% 29.84 in 10.0 mi ENE 15.0 mph - 0.12 in Rain Light Rain
5:51 AM 82.9 °F 90.8 °F 75.9 °F 79% 29.85 in 10.0 mi East 10.4 mph - 0.00 in   Scattered Clouds
6:51 AM 82.0 °F 87.9 °F 73.9 °F 76% 29.86 in 10.0 mi ENE 10.4 mph - 0.00 in   Mostly Cloudy
7:51 AM 82.9 °F 90.8 °F 75.9 °F 79% 29.86 in 10.0 mi ENE 13.8 mph 18.4 mph N/A   Mostly Cloudy
8:51 AM 84.9 °F 94.1 °F 75.9 °F 74% 29.88 in 10.0 mi ENE 12.7 mph 21.9 mph N/A   Scattered Clouds
9:51 AM 86.0 °F 96.0 °F 75.9 °F 72% 29.90 in 10.0 mi ESE 16.1 mph 25.3 mph N/A   Scattered Clouds
10:28 AM 87.8 °F 97.6 °F 75.2 °F 66% 29.92 in 10.0 mi East 17.3 mph - N/A   Mostly Cloudy
10:41 AM 84.2 °F 92.3 °F 75.2 °F 74% 29.93 in 7.0 mi East 16.1 mph 32.2 mph 0.00 in   Mostly Cloudy
10:51 AM 86.0 °F 95.1 °F 75.0 °F 70% 29.93 in 10.0 mi East 18.4 mph 24.2 mph 0.00 in   Mostly Cloudy
11:51 AM 87.1 °F 97.3 °F 75.9 °F 69% 29.92 in 10.0 mi East 20.7 mph 25.3 mph N/A   Scattered Clouds
12:51 PM 88.0 °F 98.5 °F 75.9 °F 67% 29.91 in 10.0 mi East 21.9 mph 31.1 mph 0.00 in   Scattered Clouds
1:51 PM 91.0 °F 101.6 °F 75.0 °F 59% 29.89 in 10.0 mi East 24.2 mph 34.5 mph N/A   Scattered Clouds
2:51 PM 89.1 °F 98.0 °F 73.9 °F 61% 29.88 in 10.0 mi East 24.2 mph 31.1 mph N/A   Scattered Clouds
3:51 PM 89.1 °F 98.0 °F 73.9 °F 61% 29.87 in 10.0 mi East 24.2 mph 29.9 mph N/A   Scattered Clouds
4:51 PM 90.0 °F 100.2 °F 75.0 °F 61% 29.86 in 10.0 mi East 20.7 mph 28.8 mph N/A   Scattered Clouds
5:51 PM 88.0 °F 96.5 °F 73.9 °F 63% 29.88 in 8.0 mi East 23.0 mph 31.1 mph 0.00 in Rain Light Rain
6:51 PM 86.0 °F 95.1 °F 75.0 °F 70% 29.88 in 10.0 mi East 20.7 mph - 0.00 in   Scattered Clouds
7:51 PM 84.9 °F 94.1 °F 75.9 °F 74% 29.90 in 10.0 mi East 13.8 mph - N/A   Scattered Clouds
8:51 PM 84.9 °F 92.1 °F 73.9 °F 69% 29.92 in 10.0 mi East 15.0 mph 20.7 mph N/A   Mostly Cloudy
9:51 PM 84.0 °F 91.9 °F 75.0 °F 74% 29.91 in 10.0 mi ENE 12.7 mph - N/A   Partly Cloudy
10:51 PM 84.9 °F 92.1 °F 73.9 °F 69% 29.92 in 10.0 mi East 12.7 mph - N/A   Partly Cloudy
11:51 PM 84.0 °F 91.9 °F 75.0 °F 74% 29.92 in 10.0 mi ENE 16.1 mph - N/A   Partly Cloudy